FW9606 Weather Reports


time (UTC)temp
F
wind
direction
speed
knots
gust
knots
rain 1hr
in
rain 24hr
in
rain mn
in
humidity
%
barometer
mb
20260507231552 48 188 3.5 10.4 0.00 0.08 0.00 87 1012.1
20260507230107 48 135 3.5 16.5 0.00 0.08 0.00 87 1012.0
20260507224555 48 360 1.7 6.1 0.00 0.08 0.08 87 1012.0
20260507223133 48 153 2.6 10.4 0.00 0.08 0.08 86 1012.0
20260507221554 48 0 0.9 7.0 0.00 0.08 0.08 86 1012.0
20260507220051 48 167 4.3 11.3 0.00 0.08 0.08 86 1012.0
20260507214557 48 171 3.5 13.0 0.00 0.08 0.08 86 1012.0
20260507213122 48 165 2.6 8.7 0.00 0.08 0.08 86 1011.9
20260507211548 48 134 2.6 8.7 0.00 0.08 0.08 87 1012.0
20260507210101 48 140 1.7 7.8 0.00 0.08 0.08 86 1012.0
20260507204548 49 115 0.9 8.7 0.00 0.08 0.08 85 1012.0
20260507203048 49 184 0.0 7.0 0.00 0.08 0.08 85 1011.9
20260507201604 49 0 0.0 3.5 0.00 0.08 0.08 86 1011.8
20260507200103 49 0 0.0 2.6 0.00 0.08 0.08 88 1011.7
20260507194549 49 0 0.0 3.5 0.00 0.08 0.08 88 1011.6
20260507193053 49 0 0.0 1.7 0.00 0.08 0.08 88 1011.5
20260507191548 50 0 0.0 0.0 0.00 0.08 0.08 88 1011.5
20260507190054 50 0 0.0 2.6 0.00 0.08 0.08 88 1011.5
20260507184549 50 0 0.0 0.9 0.00 0.08 0.08 88 1011.4
20260507183052 50 0 0.0 2.6 0.00 0.08 0.08 87 1011.5
20260507181548 50 133 0.9 1.7 0.00 0.08 0.08 87 1011.4
20260507180054 50 94 0.9 2.6 0.00 0.08 0.08 88 1011.3
20260507174555 50 0 0.0 4.3 0.00 0.08 0.08 86 1011.3
20260507173054 49 226 0.9 7.0 0.00 0.08 0.08 87 1011.2
20260507171600 48 0 0.9 7.8 0.00 0.08 0.08 86 1011.3
20260507170051 48 140 0.0 5.2 0.01 0.08 0.08 86 1011.4
20260507164547 48 0 0.0 9.6 0.01 0.08 0.08 85 1011.4
20260507163044 47 0 3.5 14.8 0.01 0.08 0.08 87 1011.5
20260507161601 47 123 0.9 12.2 0.01 0.08 0.08 90 1011.6
20260507160045 47 155 4.3 13.9 0.02 0.07 0.07 90 1011.7
20260507154549 48 126 1.7 13.9 0.07 0.07 0.07 89 1011.7
20260507153106 48 0 0.0 2.6 0.07 0.07 0.07 92 1011.7
20260507151558 48 121 1.7 13.0 0.07 0.07 0.07 92 1011.7
20260507150052 49 360 1.7 8.7 0.05 0.05 0.05 88 1011.9
20260507144543 53 203 7.8 13.0 0.00 0.00 0.00 77 1011.9
20260507143051 53 135 4.3 16.5 0.00 0.00 0.00 75 1011.7
20260507141551 53 140 6.1 13.9 0.00 0.00 0.00 75 1011.8
20260507140047 53 170 5.2 12.2 0.00 0.00 0.00 75 1011.9
20260507134552 53 172 5.2 19.1 0.00 0.00 0.00 74 1012.1
20260507133047 54 124 7.0 15.6 0.00 0.00 0.00 74 1012.1
20260507131551 55 175 9.6 17.4 0.00 0.00 0.00 73 1012.1
20260507130057 54 156 4.3 14.8 0.00 0.00 0.00 78 1012.3
20260507124557 53 185 5.2 12.2 0.00 0.00 0.00 77 1012.4
20260507123104 52 166 9.6 14.8 0.00 0.00 0.00 77 1012.4
20260507121557 51 149 5.2 14.8 0.00 0.00 0.00 79 1012.4
20260507120048 50 187 7.8 13.9 0.00 0.00 0.00 80 1012.5
20260507114554 49 163 6.1 11.3 0.00 0.00 0.00 80 1012.6
20260507113051 50 167 7.0 13.0 0.00 0.00 0.00 80 1012.7
20260507111550 50 141 6.1 10.4 0.00 0.00 0.00 78 1012.7
20260507110049 51 165 6.1 12.2 0.00 0.00 0.00 77 1012.6
20260507104550 52 147 4.3 8.7 0.00 0.00 0.00 77 1012.7
20260507103044 52 175 3.5 10.4 0.00 0.00 0.00 75 1012.9
20260507101556 53 163 4.3 8.7 0.00 0.00 0.00 75 1012.7
20260507100055 53 142 2.6 11.3 0.00 0.00 0.00 76 1012.7
20260507094547 52 151 3.5 8.7 0.00 0.00 0.00 77 1012.8
20260507093048 52 133 2.6 7.8 0.00 0.00 0.00 75 1012.8
20260507091556 52 144 2.6 7.8 0.00 0.00 0.00 77 1012.8
20260507090048 51 185 2.6 8.7 0.00 0.00 0.00 78 1012.8
20260507084548 50 126 0.9 7.0 0.00 0.00 0.00 79 1013.0
20260507083107 49 138 2.6 7.0 0.00 0.00 0.00 80 1013.0
20260507081558 49 92 2.6 9.6 0.00 0.00 0.00 82 1013.0
20260507080047 48 167 2.6 9.6 0.00 0.00 0.00 82 1013.1
20260507074549 47 140 2.6 9.6 0.00 0.00 0.00 81 1013.0
20260507073053 46 132 1.7 7.0 0.00 0.00 0.00 82 1013.1
20260507071545 46 163 2.6 5.2 0.00 0.00 0.00 83 1013.0
20260507070047 45 149 0.9 3.5 0.00 0.00 0.00 85 1013.0
20260507064550 44 147 0.0 0.9 0.00 0.00 0.00 86 1013.1
20260507063050 43 0 0.0 2.6 0.00 0.00 0.00 85 1013.1
20260507061552 42 323 0.0 1.7 0.00 0.00 0.00 86 1013.1
20260507060057 42 0 0.0 1.7 0.00 0.00 0.00 86 1013.0
20260507054553 42 0 0.0 1.7 0.00 0.00 0.00 87 1013.0
20260507053048 42 0 0.0 1.7 0.00 0.00 0.00 86 1012.9
20260507051550 42 0 0.0 0.9 0.00 0.00 0.00 87 1013.0
20260507050058 41 0 0.0 2.6 0.00 0.00 0.00 86 1013.0
20260507044553 41 0 0.0 2.6 0.00 0.00 0.00 87 1013.1
20260507043049 41 0 0.9 3.5 0.00 0.00 0.00 88 1013.0
20260507041547 41 138 0.0 0.9 0.00 0.00 0.00 87 1013.0
20260507040046 41 28 0.0 1.7 0.00 0.00 0.00 87 1013.1
20260507034551 41 0 0.0 3.5 0.00 0.00 0.00 87 1013.1
20260507033049 41 0 0.9 3.5 0.00 0.00 0.00 87 1013.2
20260507031549 41 0 0.0 1.7 0.00 0.00 0.00 86 1013.2
20260507030047 41 0 0.0 0.9 0.00 0.00 0.00 86 1013.3
20260507024551 41 0 0.0 1.7 0.00 0.00 0.00 85 1013.4
20260507023044 41 0 0.0 1.7 0.00 0.00 0.00 84 1013.4
20260507021551 41 123 0.0 0.0 0.00 0.00 0.00 83 1013.4
20260507020104 42 0 0.0 0.9 0.00 0.00 0.00 83 1013.4
20260507014557 42 0 0.9 3.5 0.00 0.00 0.00 82 1013.6
20260507013053 43 157 1.7 3.5 0.00 0.00 0.00 82 1013.6
20260507011551 43 0 0.0 1.7 0.00 0.00 0.00 81 1013.8
20260507010050 43 0 0.9 4.3 0.00 0.00 0.00 81 1013.8
20260507004549 43 116 2.6 6.1 0.00 0.00 0.00 80 1013.9
20260507003047 43 136 1.7 4.3 0.00 0.00 0.00 81 1013.9
20260507001557 44 152 0.0 3.5 0.00 0.00 0.00 81 1014.0
20260507000053 44 109 0.0 1.7 0.00 0.00 0.00 81 1014.1
20260506234600 44 105 0.9 2.6 0.00 0.00 0.00 81 1014.1
20260506233057 44 134 1.7 6.1 0.00 0.00 0.00 81 1014.3